FW1524 Weather Reports


time (UTC)temp
C
wind
direction
speed
KPH
gust
KPH
rain 1hr
cm
rain 24hr
cm
rain mn
cm
humidity
%
barometer
mb
20260905101605 14 217 0.0 0.0 0.00 0.00 0.00 1 1010.2
20260905100120 15 217 0.0 0.0 0.00 0.00 0.00 1 1010.0
20260905094551 15 218 0.0 0.0 0.00 0.00 0.00 1 1009.8
20260905093045 15 218 0.0 0.0 0.00 0.00 0.00 1 1010.0
20260905091555 15 218 0.0 0.0 0.00 0.00 0.00 1 1009.9
20260905090040 15 218 0.0 0.0 0.00 0.00 0.00 1 1009.9
20260905084542 15 218 0.0 0.0 0.00 0.00 0.00 1 1009.9
20260905083038 15 218 0.0 0.0 0.00 0.00 0.00 1 1010.0
20260905081527 16 218 0.0 0.0 0.00 0.00 0.00 1 1010.1
20260905080024 16 218 0.0 0.0 0.00 0.00 0.00 1 1010.0
20260905074524 16 218 0.0 0.0 0.00 0.00 0.00 1 1010.0
20260905073015 16 218 0.0 0.0 0.00 0.00 0.00 1 1010.0
20260905071513 16 218 0.0 0.0 0.00 0.00 0.00 1 1010.1
20260905070009 17 218 0.0 0.0 0.00 0.00 0.00 1 1010.3
20260905064508 17 218 0.0 0.0 0.00 0.00 0.00 1 1010.3
20260905063101 17 218 0.0 0.0 0.00 0.00 0.00 1 1010.4
20260905061604 17 218 0.0 0.0 0.00 0.00 0.00 1 1010.5
20260905060051 17 218 0.0 0.0 0.00 0.00 0.00 1 1010.5
20260905054634 17 218 0.0 0.0 0.00 0.00 0.00 1 1010.6
20260905053046 18 218 0.0 0.0 0.00 0.00 0.00 1 1010.7
20260905051542 18 218 0.0 0.0 0.00 0.00 0.00 1 1010.7
20260905050038 18 232 0.0 0.0 0.00 0.00 0.00 1 1010.7
20260905044534 18 289 0.0 1.6 0.00 0.00 0.00 1 1010.9
20260905043030 18 196 0.0 0.0 0.00 0.94 0.00 1 1011.0
20260905041527 18 238 0.0 0.0 0.00 0.94 0.00 1 1010.9
20260905040023 18 232 0.0 0.0 0.00 0.94 0.00 1 1010.9
20260905034519 18 230 0.0 0.0 0.00 0.94 0.00 1 1010.8
20260905033017 18 249 0.0 0.0 0.00 0.94 0.00 1 1010.8
20260905031510 18 239 0.0 0.0 0.00 0.94 0.00 1 1010.8
20260905030010 19 326 0.0 0.0 0.00 0.94 0.00 1 1010.8
20260905024501 20 326 0.0 0.0 0.00 0.94 0.00 1 1010.8
20260905023057 20 326 0.0 0.0 0.00 0.94 0.00 1 1010.8
20260905021555 20 326 0.0 0.0 0.00 0.94 0.00 1 1010.8
20260905020055 20 326 0.0 0.0 0.00 0.94 0.00 1 1010.9
20260905014546 21 326 0.0 0.0 0.00 0.94 0.00 1 1011.0
20260905013042 21 326 0.0 0.0 0.00 0.94 0.00 1 1011.1
20260905011552 21 326 0.0 0.0 0.00 0.94 0.00 1 1011.0
20260905010058 21 277 0.0 0.0 0.00 0.94 0.00 1 1010.8
20260905004544 20 309 0.0 0.0 0.00 0.94 0.00 1 1010.8
20260905003041 20 242 0.0 0.0 0.00 0.94 0.00 1 1010.6
20260905001525 20 242 0.0 0.0 0.00 0.94 0.00 1 1010.5
20260905000031 20 242 0.0 0.0 0.00 0.94 0.00 1 1010.4
20260904234517 21 205 0.0 0.0 0.00 0.94 0.00 1 1010.3
20260904233013 21 202 0.0 0.0 0.00 0.94 0.00 1 1010.1
20260904231517 21 200 0.0 0.0 0.00 0.94 0.00 1 1010.2
20260904230015 22 200 0.0 0.0 0.00 0.94 0.00 1 1010.0
20260904224503 22 200 0.0 0.0 0.00 0.94 0.00 1 1010.1
20260904223100 23 200 0.0 1.6 0.00 0.94 0.00 1 1010.1
20260904221603 25 61 0.0 0.0 0.00 0.94 0.00 1 1010.0
20260904220057 25 38 0.0 1.6 0.00 0.94 0.00 32 1009.8
20260904214544 26 245 0.0 0.0 0.00 0.94 0.00 25 1009.6
20260904213040 26 246 0.0 0.0 0.00 0.94 0.00 46 1009.6
20260904211542 26 291 0.0 1.6 0.00 0.94 0.00 46 1009.7
20260904210040 26 213 0.0 0.0 0.00 0.94 0.00 46 1009.8
20260904204534 26 15 0.0 0.0 0.00 0.94 0.00 46 1010.0
20260904203038 27 350 0.0 0.0 0.00 0.94 0.00 47 1010.1
20260904201525 26 52 0.0 1.6 0.00 0.94 0.00 46 1010.2
20260904200021 26 213 0.0 14.5 0.00 0.94 0.00 42 1010.5
20260904194516 26 344 0.0 0.0 0.00 0.94 0.00 38 1010.5
20260904193012 26 360 0.0 3.2 0.00 0.94 0.00 37 1010.7
20260904191508 26 27 0.0 1.6 0.00 0.94 0.00 36 1010.7
20260904190004 27 29 0.0 3.2 0.00 0.94 0.00 38 1010.8
20260904184620 26 174 0.0 12.9 0.00 0.94 0.00 42 1010.7
20260904183056 27 312 0.0 1.6 0.00 0.94 0.00 34 1010.8
20260904181553 26 246 0.0 1.6 0.00 0.94 0.00 31 1011.1
20260904180050 26 213 0.0 1.6 0.00 0.94 0.00 30 1011.2
20260904174544 26 22 0.0 1.6 0.00 0.94 0.00 35 1011.6
20260904173055 26 241 0.0 1.6 0.00 0.94 0.00 26 1011.5
20260904171544 26 238 0.0 3.2 0.00 0.94 0.00 20 1011.6
20260904170038 26 222 0.0 0.0 0.00 0.94 0.00 17 1011.8
20260904164529 25 347 0.0 6.4 0.00 0.94 0.00 7 1011.6
20260904163024 25 217 0.0 0.0 0.00 0.94 0.00 1 1011.6
20260904161528 25 304 0.0 1.6 0.00 0.94 0.00 1 1011.9
20260904160021 25 350 0.0 0.0 0.00 0.94 0.00 1 1011.9
20260904154517 24 20 0.0 1.6 0.00 0.94 0.00 1 1011.9
20260904153015 24 17 0.0 8.0 0.00 0.94 0.00 1 1012.2
20260904151508 23 15 0.0 6.4 0.00 0.94 0.00 1 1012.0
20260904150004 23 23 0.0 1.6 0.00 0.94 0.00 1 1012.0
20260904144600 23 9 0.0 4.8 0.00 0.94 0.00 1 1012.0
20260904143055 23 227 0.0 4.8 0.00 0.94 0.00 1 1012.1
20260904141601 23 13 0.0 1.6 0.00 0.94 0.00 1 1012.2
20260904140106 22 5 0.0 1.6 0.00 0.94 0.00 1 1012.1
20260904134609 22 36 0.0 1.6 0.00 0.94 0.00 1 1012.1
20260904133048 22 21 0.0 0.0 0.00 0.94 0.00 1 1011.9
20260904131541 21 296 0.0 0.0 0.00 0.94 0.00 1 1011.8
20260904130039 20 302 0.0 0.0 0.00 0.94 0.00 1 1011.9
20260904124530 20 227 0.0 1.6 0.00 0.94 0.00 1 1012.1
20260904123025 19 180 0.0 3.2 0.00 0.94 0.00 1 1012.1
20260904121523 19 263 0.0 0.0 0.00 0.94 0.00 1 1011.9
20260904120021 19 206 0.0 0.0 0.00 0.94 0.00 1 1011.8
20260904114514 18 240 0.0 0.0 0.00 0.94 0.00 1 1011.8
20260904113011 18 240 0.0 0.0 0.00 0.94 0.00 1 1011.8
20260904111507 19 223 0.0 0.0 0.00 0.94 0.00 1 1011.5
20260904110003 19 244 0.0 0.0 0.00 0.94 0.00 1 1011.4
20260904104602 19 244 0.0 0.0 0.00 0.94 0.00 1 1011.5
20260904103058 19 244 0.0 0.0 0.00 0.94 0.00 1 1011.3